Flag for Norway Weather past 2 weeks in Fauske, Norway

Now
57 °F

Sunny.


Feels Like: 57 °F
Forecast: 53 / 58 °F
Wind: 5 mph from East

Location: Bodo Vi

Current Time: Jul 29, 2015 at 8:02:01 AM

Latest Report: Jul 29, 2015 at 6:50 AM


Visibility: 10 mi

Pressure: 29.62 "Hg

Humidity: 77%

Dew point: 50 °F

Location of FauskeLocation

Historic Weather in Fauske — Graph

°F

Fauske temperature yesterday

Maximum temperature yesterday: 61 °F (at 11:20 AM)
Minimum temperature yesterday: 50 °F (at 12:50 AM)
Average temperature yesterday: 57 °F

Past Weeks' High & Low Weather Summary

 TemperatureHumidityPressure
High66 °F (Jul 22, 11:50 AM)100% (Jul 15, 4:50 AM)29.92 "Hg (Jul 15, 4:50 AM)
Low48 °F (Jul 16, 8:50 AM)49% (Jul 22, 6:20 PM)29.30 "Hg (Jul 27, 10:50 AM)
Average54 °F85%29.70 "Hg
* Reported Jul 14 6:20 AM — Jul 29 6:50 AM, Fauske, Weather by CustomWeather, © 2015

Note: Actual official high and low records may vary slightly from our data, if they occured in-between our weather recording intervals... More about our weather records

Advertising

Fauske weather history for previous 24 hours

 ConditionsComfort  
Time TempWeatherWind HumidityBarometerVisibility
6:50 AM
Wed, Jul 29
57 °FSunny.5 mph77%29.62 "Hg10 mi
6:20 AM55 °FScattered clouds.3 mph88%29.62 "HgN/A
5:50 AM54 °FScattered clouds.5 mph94%29.62 "HgN/A
4:50 AM54 °FScattered clouds.1 mph94%29.62 "HgN/A
3:50 AM52 °FPassing clouds.2 mph94%29.65 "HgN/A
2:50 AM52 °FPassing clouds.1 mph88%29.65 "HgN/A
1:50 AM52 °FPassing clouds.3 mph88%29.65 "HgN/A
12:50 AM54 °FPassing clouds.3 mph82%29.65 "HgN/A
11:50 PM
Tue, Jul 28
54 °FScattered clouds.6 mph82%29.65 "HgN/A
10:50 PM55 °FScattered clouds.7 mph77%29.65 "HgN/A
10:20 PM55 °FScattered clouds.6 mph77%29.65 "HgN/A
9:50 PM57 °FScattered clouds.6 mph77%29.62 "HgN/A
9:20 PM57 °FScattered clouds.6 mph72%29.65 "HgN/A
8:50 PM57 °FScattered clouds.6 mph77%29.65 "HgN/A
8:20 PM59 °FScattered clouds.6 mph68%29.62 "HgN/A
7:50 PM59 °FScattered clouds.7 mph68%29.62 "HgN/A
7:20 PM59 °FPassing clouds.6 mph72%29.62 "HgN/A
6:50 PM59 °FPassing clouds.8 mph72%29.62 "HgN/A
6:20 PM59 °FPassing clouds.5 mph72%29.62 "HgN/A
5:50 PM59 °FPassing clouds.9 mph72%29.62 "HgN/A
5:20 PM59 °FPassing clouds.9 mph72%29.62 "HgN/A
4:50 PM59 °FPassing clouds.9 mph77%29.62 "HgN/A
4:20 PM59 °FPassing clouds.7 mph72%29.62 "HgN/A
3:50 PM59 °FPassing clouds.7 mph72%29.62 "HgN/A
3:20 PM59 °FPassing clouds.8 mph77%29.59 "HgN/A
2:50 PM59 °FPassing clouds.8 mph77%29.59 "HgN/A
2:20 PM59 °FScattered clouds.9 mph77%29.59 "HgN/A
1:50 PM61 °FPartly sunny.13 mph59%29.59 "HgN/A
1:20 PM61 °FPartly sunny.14 mph59%29.56 "HgN/A
12:50 PM61 °FPartly sunny.14 mph59%29.56 "HgN/A
12:20 PM59 °FScattered clouds.15 mph63%29.56 "HgN/A
11:50 AM61 °FScattered clouds.17 mph63%29.56 "HgN/A
11:20 AM61 °FPartly sunny.10 mph63%29.56 "HgN/A
10:50 AM59 °FScattered clouds.8 mph72%29.56 "HgN/A
10:20 AM57 °FPartly sunny.7 mph72%29.53 "HgN/A
9:50 AM57 °FPartly sunny.3 mph72%29.53 "HgN/A
9:20 AM55 °FPartly sunny.3 mph82%29.50 "HgN/A
8:50 AM55 °FPartly sunny.7 mph77%29.50 "HgN/A
8:20 AM55 °FPartly sunny.10 mph72%29.50 "HgN/A
Weather by CustomWeather, © 2015

See weather overviewHow to use our weather pages